[[{"header":{"parameterUnit":"m.s-1","parameterCategory":1,"la1":30.2991,"la2":30.254,"lo1":-89.0895,"lo2":-89.0444,"dy":0.0017,"dx":0.0017,"nx":28,"ny":28,"refTime":"2024-04-01T21:00:00:Z","depth":0,"parameterNumber":2,"parameterNumberName":"U-component_of_WINDS"},"data":[0,0,0,0,0,0,0,0,0,0,0,0,0,0,0,0,0,0,0,0,0,0,0,0,0,0,0,0,0,0,0,0,0,0,0,0,0,0,0,0,0,0,0,0,0,0,0,0,0,0,0,0,0,0,0,0,0,0,6.0951,6.0952,0,6.1033,6.1033,6.1034,6.1014,6.1012,6.1011,6.1009,6.1091,6.1095,6.1098,0,0,0,0,0,0,0,0,0,0,0,0,0,6.0777,6.0781,6.0951,6.0952,6.0953,6.1032,6.1033,6.1035,6.1014,6.1012,6.101,6.1008,6.109,6.1094,6.1099,0,0,0,0,0,0,0,0,0,0,0,0,0,6.0855,6.0782,6.0951,6.0952,6.0953,6.1032,6.1034,6.1035,6.1015,6.1012,6.101,6.1008,6.1088,6.1094,6.1099,6.1181,0,0,6.1116,6.1118,0,0,0,0,0,0,0,0,6.0851,6.0862,6.0951,6.0952,6.0953,6.1011,6.1002,6.1084,6.1015,6.0991,6.1009,6.1006,6.1066,6.1073,6.1094,6.1185,6.1188,6.1117,6.112,6.1122,6.1124,0,0,0,0,0,0,0,6.0845,6.0858,6.0983,6.0952,6.0954,6.0949,6.0957,6.1018,6.1041,6.0993,6.0992,6.1002,6.1066,6.1089,6.1096,6.119,6.1116,6.1121,6.1125,6.1127,6.1355,6.1357,0,0,0,0,0,0,6.0839,6.0854,6.098,6.0985,6.0895,6.0954,6.0964,6.0995,6.104,6.1045,6.1004,6.1001,6.108,6.1089,6.1098,6.1199,6.1122,6.1127,6.113,6.1352,6.1355,6.1358,0,0,0,0,0,0,6.0835,6.0851,6.0977,6.0919,6.0935,6.096,6.0995,6.0998,6.102,6.1048,6.1052,6.1022,6.1079,6.1091,6.1161,6.1201,6.113,6.1135,6.1349,6.1353,6.1357,6.1399,0,0,0,0,0,0,6.0831,6.0849,6.088,6.092,6.0938,6.1039,6.0997,6.1001,6.1029,6.1026,6.1067,6.1071,6.1078,6.1153,6.1167,6.1208,6.1139,6.1345,6.1351,6.1355,6.1394,6.1404,6.1413,0,0,0,0,0,6.0824,6.0888,6.0882,6.0897,6.0978,6.1041,6.1051,6.1058,6.1033,6.1064,6.1083,6.107,6.1195,6.1161,6.1176,6.1219,6.1343,6.1349,6.1355,6.139,6.1402,6.1412,0,0,0,0,0,0,6.0851,6.0893,6.0887,6.0965,6.1,6.1037,6.1077,6.107,6.1112,6.1107,6.1113,6.1123,6.1196,6.1214,6.1175,6.1302,6.1265,6.1275,6.1287,6.1298,6.1307,6.1301,6.1144,0,0,0,0,0,6.0866,6.0914,6.0949,6.1015,6.1032,6.1052,6.108,6.1083,6.1118,6.1132,6.1156,6.1191,6.1239,6.127,6.1315,6.1397,6.1407,6.1434,6.1444,6.1451,6.1459,6.1506,6.152,6.1379,6.1378,6.1378,0,0,6.0897,6.0927,6.0956,6.1021,6.1048,6.1098,6.1064,6.1118,6.1156,6.114,6.1209,6.1228,6.1268,6.1346,6.1381,6.1363,6.1501,6.1459,6.1465,6.1469,6.1514,6.1527,6.1539,6.1383,6.1382,6.1381,0,0,6.0981,6.1007,6.1066,6.1095,6.1137,6.115,6.1164,6.1204,6.1216,6.1285,6.1276,6.1321,6.1402,6.1431,6.1456,6.1554,6.1544,6.1569,6.1617,6.1663,6.1674,6.1684,6.172,6.1733,6.1577,6.1577,6.1577,0,6.1014,6.1089,6.1097,6.1153,6.1182,6.1172,6.1233,6.126,6.1314,6.1335,6.1314,6.1418,6.1444,6.1529,6.1553,6.1574,6.1591,6.1564,6.1672,6.1682,6.1691,6.1726,6.1739,6.158,6.1579,6.1579,6.1579,0,6.1129,6.1182,6.1225,6.1279,6.1313,6.1371,6.1388,6.1421,6.1422,6.1438,6.151,6.1541,6.1593,6.1614,6.1614,6.17,6.1688,6.167,6.1633,6.1707,6.174,6.1753,6.1584,6.1583,6.1582,6.1581,0,0,6.1229,6.1289,6.1305,6.1331,6.1378,6.1419,6.1477,6.1529,6.1559,6.1597,6.1647,6.1717,6.1701,6.173,6.1734,6.1775,6.1852,6.1752,6.1753,6.177,6.1951,6.1965,6.198,6.1846,6.1849,6.1851,6.1948,0,6.1317,6.142,6.143,6.1522,6.1572,6.1565,6.1616,6.1651,6.1667,6.1712,6.1731,6.1781,6.1756,6.1774,6.1814,6.1834,6.1889,6.1827,6.1893,6.1895,6.1883,6.1997,6.201,6.2101,6.1961,6.1963,6.1964,0,6.1433,6.1477,6.1574,6.1617,6.1638,6.1684,6.1734,6.1777,6.1817,6.1826,6.1861,6.186,6.1921,6.1883,6.1967,6.1925,6.1953,6.1968,6.1971,6.1977,6.1934,6.2006,6.2129,6.2143,6.1984,6.1983,6.1981,0,6.1498,6.1581,6.1651,6.1673,6.1724,6.1757,6.1779,6.1817,6.1849,6.1893,6.1913,6.1963,6.1991,6.203,6.2043,6.2014,6.2128,6.209,6.2138,6.2138,6.2162,6.216,6.2292,6.2179,6.2179,6.2179,6.2179,0,6.1595,6.1655,6.1681,6.1724,6.1792,6.1803,6.187,6.1891,6.1926,6.1973,6.197,6.2014,6.2029,6.2076,6.2087,6.2157,6.2169,6.2179,6.2181,6.2179,6.2178,6.2197,6.2191,6.2183,6.2182,6.2181,6.218,0,6.1678,6.1698,6.1774,6.1817,6.1829,6.1878,6.1915,6.1957,6.1974,6.2034,6.2049,6.2076,6.2132,6.2149,6.2216,6.2223,6.2305,6.2301,6.2292,6.2292,6.2339,6.2335,6.2487,6.2508,6.2382,6.2383,6.2384,0,6.1739,6.1786,6.1835,6.1867,6.1891,6.1943,6.1976,6.1989,6.2024,6.2075,6.2111,6.2166,6.2212,6.2302,6.2327,6.2379,6.2377,6.2427,6.2384,6.2382,6.2379,6.2376,6.2381,6.2435,6.2436,6.2437,6.2438,0,6.1846,6.1854,6.1901,6.1954,6.1994,6.2035,6.2075,6.2102,6.2121,6.216,6.2218,6.2254,6.2323,6.2379,6.2432,6.2456,6.2451,6.2452,6.2465,6.2464,6.2457,6.2463,6.2314,6.2448,6.2447,6.2446,6.2445,6.2445,6.192,6.1962,6.2004,6.2058,6.209,6.2128,6.217,6.2194,6.2242,6.2301,6.2306,6.2369,6.241,6.2481,6.2508,6.2558,6.2544,6.2563,6.2569,6.2573,6.2578,6.2449,6.2568,6.2567,6.2567,6.2567,6.2567,0,6.2027,6.2055,6.2104,6.2161,6.2205,6.2197,6.2242,6.2278,6.2334,6.2373,6.2418,6.2486,6.2541,6.2572,6.2627,6.2661,6.266,6.2675,6.2672,6.2678,6.2587,6.257,6.2674,6.2674,6.2674,6.2674,6.2674,6.2674,6.2088,6.2159,6.2173,6.2261,6.2287,6.2349,6.2376,6.2412,6.2443,6.2519,6.2565,6.2585,6.2622,6.268,6.273,6.2738,6.2758,6.2775,6.2781,6.2695,6.2684,6.2674,6.2658,6.2779,6.2779,6.2868,6.2869,6.287]},{"header":{"parameterUnit":"m.s-1","parameterCategory":1,"la1":30.2991,"la2":30.254,"lo1":-89.0895,"lo2":-89.0444,"dy":0.0017,"dx":0.0017,"nx":28,"ny":28,"refTime":"2024-04-01T21:00:00:Z","depth":0,"parameterNumber":3,"parameterNumberName":"V-component_of_WINDS"},"data":[0,0,0,0,0,0,0,0,0,0,0,0,0,0,0,0,0,0,0,0,0,0,0,0,0,0,0,0,0,0,0,0,0,0,0,0,0,0,0,0,0,0,0,0,0,0,0,0,0,0,0,0,0,0,0,0,0,0,-4.067,-4.067,0,-4.068,-4.068,-4.068,-4.0692,-4.0692,-4.0692,-4.0692,-4.0698,-4.0698,-4.0698,0,0,0,0,0,0,0,0,0,0,0,0,0,-4.0659,-4.0659,-4.067,-4.067,-4.067,-4.068,-4.068,-4.068,-4.0692,-4.0692,-4.0692,-4.0692,-4.0698,-4.0698,-4.0698,0,0,0,0,0,0,0,0,0,0,0,0,0,-4.0666,-4.0659,-4.067,-4.0677,-4.0678,-4.068,-4.068,-4.068,-4.0692,-4.0692,-4.0692,-4.0692,-4.0698,-4.0698,-4.0698,-4.0692,0,0,-4.0698,-4.0698,0,0,0,0,0,0,0,0,-4.0665,-4.0666,-4.0676,-4.0677,-4.0678,-4.0685,-4.0678,-4.0684,-4.0692,-4.0686,-4.0692,-4.0693,-4.0693,-4.0694,-4.0695,-4.0693,-4.0693,-4.0698,-4.0698,-4.0698,-4.0698,0,0,0,0,0,0,0,-4.0665,-4.0666,-4.0674,-4.0676,-4.0677,-4.0679,-4.0681,-4.0679,-4.0688,-4.0687,-4.0688,-4.0689,-4.0694,-4.0695,-4.0695,-4.0693,-4.0698,-4.0698,-4.0698,-4.0698,-4.0688,-4.0688,0,0,0,0,0,0,-4.0664,-4.0665,-4.0674,-4.0674,-4.0672,-4.0679,-4.0681,-4.0682,-4.0688,-4.0689,-4.0689,-4.0689,-4.0695,-4.0695,-4.0695,-4.069,-4.0698,-4.0698,-4.0698,-4.0688,-4.0688,-4.0688,0,0,0,0,0,0,-4.0663,-4.0664,-4.0673,-4.067,-4.0671,-4.0679,-4.0681,-4.0682,-4.0683,-4.069,-4.0691,-4.0688,-4.0695,-4.0695,-4.0694,-4.069,-4.0698,-4.0698,-4.0688,-4.0688,-4.0688,-4.0678,0,0,0,0,0,0,-4.0663,-4.0664,-4.0662,-4.067,-4.0671,-4.0672,-4.0681,-4.0682,-4.0684,-4.0685,-4.069,-4.069,-4.0695,-4.0694,-4.0694,-4.069,-4.0698,-4.0689,-4.0688,-4.0688,-4.0678,-4.0677,-4.0676,0,0,0,0,0,-4.0662,-4.0658,-4.0662,-4.0663,-4.067,-4.0672,-4.0673,-4.0679,-4.0683,-4.0682,-4.0686,-4.069,-4.0691,-4.0693,-4.0693,-4.069,-4.0689,-4.0688,-4.0688,-4.0679,-4.0677,-4.0676,0,0,0,0,0,0,-4.0647,-4.0659,-4.0664,-4.0662,-4.0666,-4.0674,-4.0671,-4.0677,-4.0679,-4.068,-4.0687,-4.0688,-4.0685,-4.0687,-4.069,-4.0685,-4.0691,-4.069,-4.0684,-4.0682,-4.0681,-4.068,-4.0698,0,0,0,0,0,-4.0644,-4.0646,-4.0656,-4.0653,-4.0655,-4.0663,-4.0664,-4.0669,-4.0673,-4.0675,-4.0679,-4.0681,-4.0682,-4.0682,-4.0683,-4.0679,-4.0681,-4.0677,-4.0676,-4.0675,-4.0674,-4.0673,-4.0671,-4.0686,-4.0686,-4.0686,0,0,-4.0637,-4.0643,-4.0644,-4.065,-4.0654,-4.0655,-4.0664,-4.0664,-4.0665,-4.0674,-4.0673,-4.0677,-4.068,-4.0678,-4.0677,-4.0679,-4.0671,-4.0674,-4.0673,-4.0673,-4.0672,-4.0671,-4.067,-4.0685,-4.0685,-4.0686,0,0,-4.0624,-4.0629,-4.0628,-4.0633,-4.0639,-4.0645,-4.0645,-4.0653,-4.0656,-4.0656,-4.0663,-4.0663,-4.0664,-4.0667,-4.0669,-4.066,-4.0664,-4.066,-4.0653,-4.0652,-4.0651,-4.065,-4.0647,-4.0646,-4.0659,-4.0659,-4.0659,0,-4.0613,-4.0617,-4.0626,-4.0627,-4.063,-4.0641,-4.0639,-4.0643,-4.0649,-4.065,-4.0654,-4.0657,-4.066,-4.0658,-4.0657,-4.0657,-4.0657,-4.0659,-4.0651,-4.065,-4.0649,-4.0646,-4.0645,-4.0659,-4.0659,-4.0659,-4.0659,0,-4.0604,-4.0606,-4.0604,-4.0612,-4.0615,-4.0614,-4.0624,-4.0625,-4.0631,-4.0636,-4.0636,-4.0641,-4.0643,-4.0644,-4.0648,-4.0643,-4.0645,-4.065,-4.0655,-4.0647,-4.0645,-4.0644,-4.0658,-4.0658,-4.0658,-4.0659,0,0,-4.0579,-4.0595,-4.0594,-4.0599,-4.0608,-4.0609,-4.061,-4.0615,-4.0616,-4.062,-4.0621,-4.0623,-4.0628,-4.063,-4.0635,-4.0634,-4.0627,-4.0639,-4.0639,-4.0636,-4.0623,-4.062,-4.0618,-4.0631,-4.0631,-4.0631,-4.0623,0,-4.0568,-4.0571,-4.0581,-4.058,-4.0583,-4.0594,-4.0595,-4.06,-4.0606,-4.0608,-4.0614,-4.0616,-4.0622,-4.0623,-4.0623,-4.0628,-4.0625,-4.0629,-4.0631,-4.0631,-4.0629,-4.0617,-4.0613,-4.0605,-4.0622,-4.0622,-4.0622,0,-4.0554,-4.0561,-4.0561,-4.0573,-4.0574,-4.0574,-4.058,-4.0583,-4.059,-4.0594,-4.0597,-4.0604,-4.0605,-4.0611,-4.0612,-4.0615,-4.0617,-4.0619,-4.0619,-4.0619,-4.0625,-4.0616,-4.0603,-4.0602,-4.0621,-4.0621,-4.0621,0,-4.0537,-4.0545,-4.0547,-4.055,-4.0563,-4.0564,-4.0569,-4.0576,-4.0579,-4.0584,-4.0586,-4.0591,-4.0593,-4.0596,-4.0604,-4.0607,-4.0605,-4.0611,-4.0607,-4.0607,-4.0605,-4.0605,-4.0592,-4.0607,-4.0607,-4.0607,-4.0607,0,-4.0523,-4.0522,-4.054,-4.054,-4.0541,-4.0553,-4.0553,-4.0559,-4.0566,-4.0568,-4.0577,-4.0579,-4.0589,-4.0592,-4.0598,-4.0599,-4.0599,-4.0602,-4.0604,-4.0601,-4.0601,-4.0602,-4.0602,-4.0607,-4.0607,-4.0607,-4.0607,0,-4.0502,-4.0514,-4.0517,-4.053,-4.0534,-4.0533,-4.0544,-4.0546,-4.0553,-4.0556,-4.0557,-4.0568,-4.0572,-4.058,-4.0585,-4.059,-4.0589,-4.0592,-4.0587,-4.0588,-4.0584,-4.0584,-4.057,-4.0569,-4.0585,-4.0585,-4.0585,0,-4.0492,-4.0493,-4.0507,-4.051,-4.0516,-4.052,-4.0524,-4.0536,-4.054,-4.0549,-4.0549,-4.0554,-4.0559,-4.0565,-4.0572,-4.0577,-4.058,-4.0575,-4.058,-4.0578,-4.058,-4.058,-4.058,-4.0573,-4.0573,-4.0573,-4.0572,0,-4.0473,-4.0479,-4.0485,-4.0494,-4.0499,-4.0505,-4.0512,-4.0514,-4.0528,-4.0531,-4.0536,-4.054,-4.0548,-4.0553,-4.0559,-4.0563,-4.057,-4.0571,-4.0571,-4.0567,-4.0565,-4.0566,-4.0583,-4.0571,-4.0571,-4.0571,-4.0571,-4.0571,-4.0457,-4.0459,-4.047,-4.0477,-4.0484,-4.0491,-4.0494,-4.0503,-4.0508,-4.0516,-4.0523,-4.0528,-4.0536,-4.0546,-4.055,-4.0554,-4.0557,-4.0556,-4.0556,-4.0555,-4.0554,-4.0565,-4.0555,-4.0555,-4.0555,-4.0555,-4.0555,0,-4.0438,-4.0447,-4.0453,-4.0465,-4.047,-4.0479,-4.0487,-4.0491,-4.0496,-4.0504,-4.051,-4.0516,-4.0522,-4.0531,-4.0537,-4.0539,-4.0542,-4.054,-4.0539,-4.054,-4.0551,-4.0551,-4.0537,-4.0537,-4.0537,-4.0537,-4.0537,-4.0537,-4.0429,-4.0433,-4.0441,-4.0449,-4.0457,-4.0464,-4.0468,-4.0475,-4.0482,-4.049,-4.0495,-4.0502,-4.0511,-4.0519,-4.0524,-4.0527,-4.0528,-4.0525,-4.0529,-4.0538,-4.0539,-4.0541,-4.0541,-4.0526,-4.0526,-4.0518,-4.0518,-4.0518]}]]